IT9NKT-WX Weather Reports


Display with metric or nautical units.
time (UTC)temp
F
wind
direction
speed
MPH
gust
MPH
rain 1hr
in
rain 24hr
in
rain mn
in
humidity
%
barometer
mb
20260902222504 82 152 0.0 0.0 0.00 0.00 0.00 78 1017.7
20260902222217 82 183 0.0 1.0 0.00 0.00 0.00 78 1017.7
20260902221504 82 179 0.0 1.0 0.00 0.00 0.00 77 1017.8
20260902221004 82 188 0.0 1.0 0.00 0.00 0.00 77 1017.7
20260902220716 82 192 0.0 1.0 0.00 0.00 0.00 77 1017.7
20260902220005 82 178 0.0 1.0 0.00 0.00 0.00 77 1017.8
20260902215504 82 194 0.0 1.0 0.00 0.00 0.00 77 1017.5
20260902215214 82 171 0.0 1.0 0.00 0.00 0.00 76 1017.7
20260902214503 82 173 0.0 1.0 0.00 0.00 0.00 76 1017.9
20260902214215 82 178 0.0 1.0 0.00 0.00 0.00 76 1017.7
20260902213713 82 182 0.0 1.0 0.00 0.00 0.00 76 1017.9
20260902213003 83 173 0.0 1.0 0.00 0.00 0.00 76 1018.0
20260902212503 83 173 0.0 1.0 0.00 0.00 0.00 76 1017.8
20260902212004 83 175 0.0 1.0 0.00 0.00 0.00 77 1017.9
20260902211503 83 190 0.0 1.0 0.00 0.00 0.00 77 1017.9
20260902211004 83 190 0.0 1.0 0.00 0.00 0.00 77 1018.0
20260902210716 83 197 0.0 1.0 0.00 0.00 0.00 77 1017.7
20260902210004 83 187 0.0 1.0 0.00 0.00 0.00 77 1017.7
20260902205504 83 181 0.0 1.0 0.00 0.00 0.00 77 1017.8
20260902205003 83 175 0.0 1.0 0.00 0.00 0.00 77 1017.5
20260902204713 83 175 0.0 1.0 0.00 0.00 0.00 77 1017.6
20260902204004 83 190 0.0 2.0 0.00 0.00 0.00 78 1017.8
20260902203503 83 191 0.0 2.0 0.00 0.00 0.00 78 1017.8
20260902203004 83 189 1.0 2.0 0.00 0.00 0.00 78 1017.4
20260902202715 83 189 0.0 2.0 0.00 0.00 0.00 78 1017.5
20260902202003 83 194 0.0 1.0 0.00 0.00 0.00 78 1017.5
20260902201504 83 193 1.0 2.0 0.00 0.00 0.00 78 1017.9
20260902201003 83 190 1.0 2.0 0.00 0.00 0.00 78 1017.8
20260902200503 83 190 0.0 2.0 0.00 0.00 0.00 77 1017.9
20260902200004 83 196 0.0 2.0 0.00 0.00 0.00 76 1017.9
20260902195504 83 196 0.0 2.0 0.00 0.00 0.00 76 1017.9
20260902195004 83 195 0.0 1.0 0.00 0.00 0.00 77 1017.7
20260902194503 83 160 0.0 1.0 0.00 0.00 0.00 77 1017.8
20260902194003 83 155 0.0 1.0 0.00 0.00 0.00 77 1017.9
20260902193504 83 182 0.0 1.0 0.00 0.00 0.00 76 1017.9
20260902193004 83 180 0.0 1.0 0.00 0.00 0.00 76 1017.6
20260902192716 83 179 0.0 1.0 0.00 0.00 0.00 76 1017.7
20260902192004 83 195 0.0 1.0 0.00 0.00 0.00 77 1017.7
20260902191504 83 199 1.0 1.0 0.00 0.00 0.00 77 1017.6
20260902191003 83 194 0.0 2.0 0.00 0.00 0.00 77 1017.8
20260902190712 83 189 0.0 2.0 0.00 0.00 0.00 77 1017.7
20260902190004 83 176 0.0 1.0 0.00 0.00 0.00 77 1017.5
20260902185504 83 185 0.0 1.0 0.00 0.00 0.00 77 1017.6
20260902185003 83 190 0.0 1.0 0.00 0.00 0.00 78 1017.6
20260902184504 83 184 0.0 1.0 0.00 0.00 0.00 78 1017.5
20260902184004 83 193 1.0 3.0 0.00 0.00 0.00 77 1017.4
20260902183715 83 190 1.0 3.0 0.00 0.00 0.00 78 1017.3
20260902183213 84 188 1.0 3.0 0.00 0.00 0.00 77 1017.5
20260902182504 84 166 0.0 2.0 0.00 0.00 0.00 77 1017.3
20260902182214 84 170 1.0 2.0 0.00 0.00 0.00 76 1017.1
20260902181504 84 164 1.0 4.0 0.00 0.00 0.00 76 1017.1
20260902181004 84 148 1.0 4.0 0.00 0.00 0.00 75 1017.1
20260902180503 84 129 1.0 3.0 0.00 0.00 0.00 75 1017.0
20260902180005 84 123 1.0 2.0 0.00 0.00 0.00 75 1016.8
20260902175503 84 158 1.0 4.0 0.00 0.00 0.00 75 1016.9
20260902175004 84 156 0.0 4.0 0.00 0.00 0.00 75 1016.9
20260902174503 84 109 0.0 2.0 0.00 0.00 0.00 75 1017.0
20260902174004 84 105 1.0 3.0 0.00 0.00 0.00 74 1017.0
20260902173504 84 95 1.0 3.0 0.00 0.00 0.00 75 1016.9
20260902173005 84 126 2.0 7.0 0.00 0.00 0.00 74 1017.0
20260902172503 84 135 2.0 7.0 0.00 0.00 0.00 73 1016.8
20260902172004 84 118 2.0 7.0 0.00 0.00 0.00 73 1017.0
20260902171718 85 132 2.0 7.0 0.00 0.00 0.00 73 1017.0
20260902171004 85 131 2.0 6.0 0.00 0.00 0.00 72 1016.8
20260902170714 85 122 2.0 4.0 0.00 0.00 0.00 72 1016.9
20260902170003 85 149 2.0 7.0 0.00 0.00 0.00 72 1016.9
20260902165503 85 143 2.0 7.0 0.00 0.00 0.00 72 1016.9
20260902165003 85 129 2.0 6.0 0.00 0.00 0.00 71 1016.8
20260902164504 86 129 2.0 6.0 0.00 0.00 0.00 71 1016.8
20260902164003 86 118 2.0 7.0 0.00 0.00 0.00 70 1016.7
20260902163716 86 101 1.0 7.0 0.00 0.00 0.00 69 1016.6
20260902163004 87 93 1.0 6.0 0.00 0.00 0.00 65 1016.6
20260902162712 87 89 2.0 6.0 0.00 0.00 0.00 65 1016.8
20260902162004 87 100 2.0 4.0 0.00 0.00 0.00 62 1016.7
20260902161504 87 120 3.0 6.0 0.00 0.00 0.00 60 1016.8
20260902161003 87 136 3.0 6.0 0.00 0.00 0.00 63 1017.0
20260902160503 88 130 3.0 8.0 0.00 0.00 0.00 62 1017.0
20260902160005 88 103 2.0 8.0 0.00 0.00 0.00 62 1016.9
20260902155504 88 73 2.0 8.0 0.00 0.00 0.00 59 1016.9
20260902155004 88 67 2.0 8.0 0.00 0.00 0.00 58 1016.9
20260902154504 88 66 2.0 10.0 0.00 0.00 0.00 59 1017.0
20260902154003 88 74 2.0 10.0 0.00 0.00 0.00 58 1016.9
20260902153503 88 81 2.0 8.0 0.00 0.00 0.00 60 1016.7
20260902153004 89 95 2.0 8.0 0.00 0.00 0.00 59 1016.7
20260902152503 88 98 3.0 10.0 0.00 0.00 0.00 61 1016.7
20260902152216 88 93 3.0 10.0 0.00 0.00 0.00 61 1016.7
20260902151714 89 78 3.0 9.0 0.00 0.00 0.00 59 1016.8
20260902151004 89 91 3.0 11.0 0.00 0.00 0.00 58 1016.7
20260902150503 89 93 3.0 11.0 0.00 0.00 0.00 59 1016.8
20260902150003 89 86 3.0 10.0 0.00 0.00 0.00 58 1016.6
20260902145503 89 82 3.0 8.0 0.00 0.00 0.00 58 1016.7
20260902145003 89 89 4.0 10.0 0.00 0.00 0.00 57 1016.6
20260902144504 89 98 3.0 10.0 0.00 0.00 0.00 56 1016.6
20260902144003 89 92 3.0 13.0 0.00 0.00 0.00 54 1016.7
20260902143504 89 95 3.0 13.0 0.00 0.00 0.00 55 1016.8
20260902143216 90 88 3.0 9.0 0.00 0.00 0.00 55 1016.7
20260902142504 89 88 4.0 9.0 0.00 0.00 0.00 54 1016.9
20260902142005 89 96 4.0 11.0 0.00 0.00 0.00 54 1016.8
20260902141504 89 89 4.0 11.0 0.00 0.00 0.00 53 1016.8
20260902141003 89 91 3.0 10.0 0.00 0.00 0.00 53 1016.7
20260902140503 90 94 3.0 10.0 0.00 0.00 0.00 55 1016.8
20260902140003 89 94 3.0 8.0 0.00 0.00 0.00 54 1017.0
20260902135503 90 109 3.0 10.0 0.00 0.00 0.00 53 1016.9
20260902135004 90 108 4.0 10.0 0.00 0.00 0.00 54 1017.1
20260902134504 90 100 4.0 8.0 0.00 0.00 0.00 55 1017.0
20260902134003 89 95 4.0 11.0 0.00 0.00 0.00 54 1017.1
20260902133503 90 73 3.0 11.0 0.00 0.00 0.00 56 1017.2
20260902133003 89 69 3.0 8.0 0.00 0.00 0.00 54 1017.3
20260902132714 89 85 3.0 8.0 0.00 0.00 0.00 55 1017.2
20260902132003 91 134 3.0 10.0 0.00 0.00 0.00 55 1017.3
20260902131504 91 105 3.0 10.0 0.00 0.00 0.00 56 1017.4
20260902131003 90 84 3.0 9.0 0.00 0.00 0.00 54 1017.3
20260902130504 89 100 3.0 8.0 0.00 0.00 0.00 55 1017.5
20260902130004 90 117 3.0 9.0 0.00 0.00 0.00 50 1017.5
20260902125503 90 103 3.0 9.0 0.00 0.00 0.00 53 1017.6
20260902125004 90 90 2.0 8.0 0.00 0.00 0.00 51 1017.6
20260902124503 90 88 2.0 7.0 0.00 0.00 0.00 51 1017.5
20260902124004 90 81 2.0 8.0 0.00 0.00 0.00 51 1017.7
20260902123503 89 98 3.0 8.0 0.00 0.00 0.00 54 1017.7
20260902123003 91 118 2.0 7.0 0.00 0.00 0.00 54 1017.7
20260902122504 91 122 2.0 7.0 0.00 0.00 0.00 52 1017.8
20260902122003 90 122 3.0 6.0 0.00 0.00 0.00 53 1017.9
20260902121716 90 121 4.0 9.0 0.00 0.00 0.00 54 1018.1
20260902121004 90 101 4.0 9.0 0.00 0.00 0.00 55 1018.0
20260902120003 90 107 2.0 8.0 0.00 0.00 0.00 54 1018.1
20260902115504 91 140 2.0 4.0 0.00 0.00 0.00 53 1018.0
20260902115004 92 119 2.0 7.0 0.00 0.00 0.00 52 1018.1
20260902114504 91 81 2.0 7.0 0.00 0.00 0.00 53 1017.9
20260902114003 90 79 1.0 4.0 0.00 0.00 0.00 55 1018.1
20260902113503 90 94 2.0 8.0 0.00 0.00 0.00 54 1018.2
20260902113004 90 113 2.0 8.0 0.00 0.00 0.00 57 1018.3
20260902112713 90 87 1.0 6.0 0.00 0.00 0.00 57 1018.3
20260902112003 89 94 2.0 5.0 0.00 0.00 0.00 55 1018.2
20260902111504 90 106 3.0 9.0 0.00 0.00 0.00 57 1018.2
20260902111003 91 92 2.0 9.0 0.00 0.00 0.00 56 1018.3
20260902110504 91 82 1.0 4.0 0.00 0.00 0.00 55 1018.3
20260902110005 89 106 2.0 8.0 0.00 0.00 0.00 56 1018.5
20260902105715 91 112 2.0 8.0 0.00 0.00 0.00 56 1018.4
20260902105004 90 93 2.0 6.0 0.00 0.00 0.00 56 1018.3
20260902104504 90 98 2.0 6.0 0.00 0.00 0.00 56 1018.4
20260902104214 91 117 2.0 7.0 0.00 0.00 0.00 53 1018.3
20260902103503 92 146 2.0 7.0 0.00 0.00 0.00 54 1018.4
20260902103004 90 105 2.0 7.0 0.00 0.00 0.00 54 1018.7
20260902102503 89 87 1.0 7.0 0.00 0.00 0.00 55 1018.4
20260902102004 90 125 1.0 6.0 0.00 0.00 0.00 54 1018.6
20260902101503 90 157 2.0 6.0 0.00 0.00 0.00 54 1018.6
20260902101003 91 143 2.0 4.0 0.00 0.00 0.00 51 1018.4
20260902100504 90 115 1.0 4.0 0.00 0.00 0.00 54 1018.4
20260902100004 90 138 1.0 4.0 0.00 0.00 0.00 52 1018.8
20260902095716 91 139 2.0 4.0 0.00 0.00 0.00 51 1018.5
20260902095004 91 130 2.0 9.0 0.00 0.00 0.00 52 1018.6
20260902094504 92 102 2.0 6.0 0.00 0.00 0.00 51 1018.4
20260902094003 90 104 2.0 6.0 0.00 0.00 0.00 52 1018.7
20260902093503 92 106 2.0 9.0 0.00 0.00 0.00 51 1018.6
20260902093004 90 115 2.0 9.0 0.00 0.00 0.00 50 1018.7
20260902092504 90 126 2.0 4.0 0.00 0.00 0.00 50 1018.7
20260902092003 90 110 1.0 4.0 0.00 0.00 0.00 50 1018.5
20260902091503 91 113 2.0 7.0 0.00 0.00 0.00 47 1018.4
20260902091003 90 105 2.0 7.0 0.00 0.00 0.00 50 1018.6
20260902090503 90 97 2.0 9.0 0.00 0.00 0.00 48 1018.4
20260902090004 89 93 2.0 9.0 0.00 0.00 0.00 49 1018.6
20260902085504 90 82 1.0 4.0 0.00 0.00 0.00 48 1018.6
20260902085003 90 101 2.0 7.0 0.00 0.00 0.00 47 1018.4
20260902084504 92 104 1.0 7.0 0.00 0.00 0.00 44 1018.2
20260902084004 91 91 2.0 6.0 0.00 0.00 0.00 44 1018.0
20260902083504 91 111 2.0 6.0 0.00 0.00 0.00 44 1018.2
20260902083003 92 184 1.0 4.0 0.00 0.00 0.00 43 1018.1
20260902082504 92 189 2.0 4.0 0.00 0.00 0.00 43 1018.1
20260902082218 92 186 2.0 6.0 0.00 0.00 0.00 43 1018.1
20260902081503 92 186 1.0 6.0 0.00 0.00 0.00 43 1018.1
20260902081003 92 180 1.0 6.0 0.00 0.00 0.00 42 1017.9
20260902080503 91 184 1.0 6.0 0.00 0.00 0.00 42 1017.9
20260902080004 90 197 1.0 2.0 0.00 0.00 0.00 43 1018.2
20260902075503 91 200 1.0 2.0 0.00 0.00 0.00 44 1017.9
20260902075004 92 205 1.0 4.0 0.00 0.00 0.00 42 1018.0
20260902074504 91 194 1.0 4.0 0.00 0.00 0.00 43 1017.8
20260902074003 90 188 1.0 3.0 0.00 0.00 0.00 43 1017.9
20260902073505 90 195 2.0 3.0 0.00 0.00 0.00 44 1018.0
20260902073004 89 195 1.0 3.0 0.00 0.00 0.00 44 1017.9
20260902072503 91 192 1.0 3.0 0.00 0.00 0.00 44 1017.9
20260902072004 90 245 0.0 2.0 0.00 0.00 0.00 44 1017.7
20260902071503 88 358 0.0 3.0 0.00 0.00 0.00 46 1017.8
20260902071003 89 359 1.0 3.0 0.00 0.00 0.00 46 1017.9
20260902070503 88 45 1.0 3.0 0.00 0.00 0.00 47 1017.8
20260902070006 90 168 0.0 2.0 0.00 0.00 0.00 45 1017.9
20260902065503 89 195 1.0 3.0 0.00 0.00 0.00 45 1017.9
20260902065005 88 193 1.0 3.0 0.00 0.00 0.00 46 1017.8
20260902064504 88 192 1.0 2.0 0.00 0.00 0.00 46 1017.8
20260902064003 87 318 0.0 2.0 0.00 0.00 0.00 46 1017.7
20260902063503 89 162 0.0 2.0 0.00 0.00 0.00 44 1017.7
20260902063004 89 231 0.0 2.0 0.00 0.00 0.00 42 1017.6
20260902062503 88 269 0.0 2.0 0.00 0.00 0.00 43 1017.7
20260902062003 87 226 0.0 2.0 0.00 0.00 0.00 44 1017.6
20260902061503 87 167 0.0 1.0 0.00 0.00 0.00 44 1017.5
20260902061215 87 15 0.0 2.0 0.00 0.00 0.00 45 1017.6
20260902060718 86 348 1.0 4.0 0.00 0.00 0.00 44 1017.9
20260902060216 86 220 1.0 4.0 0.00 0.00 0.00 44 1017.8
20260902055504 85 217 0.0 2.0 0.00 0.00 0.00 44 1017.7
20260902055003 85 154 0.0 2.0 0.00 0.00 0.00 45 1017.9
20260902054504 84 158 0.0 2.0 0.00 0.00 0.00 48 1017.7
20260902054004 83 163 0.0 1.0 0.00 0.00 0.00 50 1017.7
20260902053504 83 164 0.0 2.0 0.00 0.00 0.00 51 1017.6
20260902053004 82 165 0.0 2.0 0.00 0.00 0.00 52 1017.8
20260902052503 82 166 0.0 2.0 0.00 0.00 0.00 53 1017.8
20260902052004 81 175 0.0 2.0 0.00 0.00 0.00 55 1017.8
20260902051504 80 168 0.0 2.0 0.00 0.00 0.00 57 1017.9
20260902051215 80 165 0.0 2.0 0.00 0.00 0.00 57 1017.9
20260902050503 79 171 0.0 1.0 0.00 0.00 0.00 58 1017.8
20260902050007 78 176 0.0 1.0 0.00 0.00 0.00 60 1018.1
20260902045503 78 178 0.0 1.0 0.00 0.00 0.00 61 1018.1
20260902045004 77 184 0.0 1.0 0.00 0.00 0.00 62 1017.8
20260902044503 77 173 1.0 1.0 0.00 0.00 0.00 64 1018.0
20260902044004 77 174 1.0 1.0 0.00 0.00 0.00 65 1018.0
20260902043503 77 179 0.0 1.0 0.00 0.00 0.00 67 1018.1
20260902043004 77 174 0.0 1.0 0.00 0.00 0.00 68 1018.0
20260902042717 77 173 0.0 1.0 0.00 0.00 0.00 68 1017.8
20260902042004 77 183 0.0 1.0 0.00 0.00 0.00 69 1017.9
20260902041713 77 187 0.0 1.0 0.00 0.00 0.00 69 1017.9
20260902041003 77 169 0.0 2.0 0.00 0.00 0.00 69 1017.9
20260902040504 77 170 0.0 2.0 0.00 0.00 0.00 68 1017.8
20260902040005 77 180 0.0 1.0 0.00 0.00 0.00 68 1017.9
20260902035504 77 173 0.0 1.0 0.00 0.00 0.00 68 1017.8
20260902035003 77 171 1.0 2.0 0.00 0.00 0.00 68 1017.8
20260902034503 77 170 1.0 2.0 0.00 0.00 0.00 67 1017.9
20260902034003 77 174 0.0 1.0 0.00 0.00 0.00 67 1017.9
20260902033504 77 175 0.0 1.0 0.00 0.00 0.00 67 1017.9
20260902033215 77 175 0.0 1.0 0.00 0.00 0.00 67 1017.7
20260902032503 77 176 0.0 1.0 0.00 0.00 0.00 67 1017.7
20260902032003 77 179 0.0 2.0 0.00 0.00 0.00 67 1017.7
20260902031503 77 180 0.0 2.0 0.00 0.00 0.00 67 1017.7
20260902031217 77 180 0.0 1.0 0.00 0.00 0.00 67 1017.8
20260902030503 77 192 0.0 1.0 0.00 0.00 0.00 67 1017.7
20260902030003 77 200 0.0 1.0 0.00 0.00 0.00 67 1017.8
20260902025503 77 202 0.0 1.0 0.00 0.00 0.00 67 1017.9
20260902025004 77 202 0.0 1.0 0.00 0.00 0.00 67 1017.9
20260902024503 77 200 0.0 1.0 0.00 0.00 0.00 67 1018.0
20260902024003 77 214 0.0 0.0 0.00 0.00 0.00 67 1017.9
20260902023503 78 205 0.0 1.0 0.00 0.00 0.00 66 1017.8
20260902023003 78 200 0.0 1.0 0.00 0.00 0.00 66 1017.8
20260902022504 78 211 1.0 2.0 0.00 0.00 0.00 66 1017.8
20260902022004 78 212 1.0 2.0 0.00 0.00 0.00 65 1017.8
20260902021714 78 212 1.0 2.0 0.00 0.00 0.00 65 1017.8
20260902021003 78 212 1.0 1.0 0.00 0.00 0.00 64 1017.8
20260902020503 79 216 1.0 1.0 0.00 0.00 0.00 63 1018.0
20260902020003 79 216 0.0 1.0 0.00 0.00 0.00 62 1017.9
20260902015716 79 212 0.0 1.0 0.00 0.00 0.00 62 1017.6
20260902015003 79 202 0.0 1.0 0.00 0.00 0.00 62 1018.1
20260902014503 79 210 0.0 1.0 0.00 0.00 0.00 62 1018.0
20260902014003 79 221 0.0 1.0 0.00 0.00 0.00 62 1017.8
20260902013503 79 243 0.0 1.0 0.00 0.00 0.00 61 1017.9
20260902013004 79 241 0.0 1.0 0.00 0.00 0.00 62 1017.8
20260902012504 79 248 0.0 1.0 0.00 0.00 0.00 63 1017.9
20260902012003 79 186 0.0 2.0 0.00 0.00 0.00 64 1017.9
20260902011504 79 151 0.0 2.0 0.00 0.00 0.00 65 1017.9
20260902011003 79 195 0.0 1.0 0.00 0.00 0.00 67 1017.9
20260902010716 79 237 0.0 0.0 0.00 0.00 0.00 67 1017.9
20260902010004 79 205 0.0 1.0 0.00 0.00 0.00 68 1017.7
20260902005717 79 218 0.0 1.0 0.00 0.00 0.00 69 1018.0
20260902005004 79 232 0.0 1.0 0.00 0.00 0.00 69 1017.8
20260902004504 79 270 0.0 1.0 0.00 0.00 0.00 71 1017.8
20260902004216 79 289 0.0 3.0 0.00 0.00 0.00 71 1017.9
20260902003503 79 273 0.0 3.0 0.00 0.00 0.00 73 1017.8
20260902003003 79 280 0.0 3.0 0.00 0.00 0.00 76 1017.7
20260902002504 79 275 0.0 3.0 0.00 0.00 0.00 76 1018.0
20260902002212 80 268 0.0 1.0 0.00 0.00 0.00 77 1017.9
20260902001503 80 270 0.0 2.0 0.00 0.00 0.00 76 1017.8
20260902001004 80 179 0.0 1.0 0.00 0.00 0.00 76 1017.9
20260902000503 80 173 0.0 1.0 0.00 0.00 0.00 76 1017.9
20260902000004 80 179 0.0 1.0 0.00 0.00 0.00 75 1017.8
20260901235503 80 166 0.0 1.0 0.00 0.00 0.00 74 1017.8
20260901235003 80 166 0.0 1.0 0.00 0.00 0.00 74 1018.0
20260901234504 80 165 0.0 1.0 0.00 0.00 0.00 73 1017.9
20260901234003 80 161 0.0 1.0 0.00 0.00 0.00 73 1017.8
20260901233503 80 170 1.0 2.0 0.00 0.00 0.00 73 1018.0
20260901233004 80 170 1.0 2.0 0.00 0.00 0.00 72 1018.0
20260901232503 80 164 1.0 2.0 0.00 0.00 0.00 73 1017.9
20260901232003 81 162 1.0 2.0 0.00 0.00 0.00 73 1018.0
20260901231504 81 163 1.0 2.0 0.00 0.00 0.00 73 1018.0
20260901230503 81 165 1.0 2.0 0.00 0.00 0.00 72 1018.1
20260901230004 81 159 1.0 2.0 0.00 0.00 0.00 72 1018.0
20260901225714 81 157 1.0 2.0 0.00 0.00 0.00 72 1018.1
20260901225004 81 166 1.0 2.0 0.00 0.00 0.00 72 1018.0
20260901224504 81 165 1.0 2.0 0.00 0.00 0.00 72 1018.0
20260901224004 81 157 1.0 2.0 0.00 0.00 0.00 71 1018.0
20260901223503 81 162 0.0 2.0 0.00 0.00 0.00 70 1017.9
20260901223214 81 161 0.0 2.0 0.00 0.00 0.00 70 1018.1